Weather Roundup
Issued by NWS Chicago, IL

Home | Current Version | Previous Version | Graphics & Text | Print | Product List | Glossary On
Versions: 1 2 3 4 5 6 7 8 9 10 11 12 13 14 15 16 17 18 19 20 21 22 23 24 25 26 27 28 29 30 31 32 33 34 35 36 37 38 39 40 41 42 43 44 45 46 47 48 49 50
000
NZUS59 KLOT 250706
HRRLOT

CHICAGO AREA WEATHER ROUNDUP
NATIONAL WEATHER SERVICE CHICAGO/ROMEOVILLE IL
100 AM CST SUN JAN 25 2015

NOTE: "FAIR" INDICATES FEW OR NO CLOUDS BELOW 12,000 FEET WITH NO
SIGNIFICANT WEATHER AND/OR OBSTRUCTIONS TO VISIBILITY.

* THESE STATIONS ARE NOT UNDER NWS QUALITY CONTROL. THEY ALSO MAY NOT
  REPORT WEATHER SUCH AS PRECIPITATION OR FOG.

ILZ005-006-012>014-019>023-250800-
NORTHEAST ILLINOIS

CITY           SKY/WX    TMP DP  RH WIND       PRES   REMARKS
OHARE          CLOUDY    32  29  88 NE5       29.67S WCI  27
MIDWAY         CLOUDY    35  31  85 E6        29.67F WCI  30
AURORA         CLOUDY    33  29  85 E8        29.65F FOG     WCI  26
LANSING*       MOCLDY    33  32  97 E3        29.67F FOG
JOLIET*        MOCLDY    33  32  95 E6        29.66S FOG     WCI  27
WAUKEGAN       MOCLDY    29  28  96 CALM      29.67S FOG
DUPAGE AIRPORT MOCLDY    32  29  88 NE9       29.65F WCI  24
WHEELING       CLOUDY    32  29  88 CALM      29.69S FOG
KANKAKEE*      MOCLDY    31  30  97 E5        29.66F FOG     WCI  26
MORRIS*        CLOUDY    33  33 100 NE5       29.65R FOG     WCI  29
LEWIS AIRPORT* CLOUDY    33  32  96 E7        29.66S WCI  27
NORTHERLY IS     N/A     32  30  93 NE2         N/A
$$

WIZ051-052-058>065-066-070>072-250800-
SOUTHEAST WISCONSIN

CITY           SKY/WX    TMP DP  RH WIND       PRES   REMARKS
MILWAUKEE      CLOUDY    32  27  81 NE17G25   29.70R WCI  21
KENOSHA*       CLOUDY    34  31  88 N9        29.67S WCI  27
RACINE*        CLOUDY    33  29  85 NE15      29.70R WCI  23
BURLINGTON     CLOUDY    30  30  99 NE10      29.68R WCI  21
WAUKESHA       LGT SNOW  30  28  93 NE13      29.70S WCI  20
$$

INZ001>003-010>013-019-020-250800-
NORTHWEST INDIANA

CITY           SKY/WX    TMP DP  RH WIND       PRES   REMARKS
GARY*          CLOUDY    35  30  83 CALM      29.68S
MICHIGAN CITY* NOT AVBL
RENSSELAER*    NOT AVBL
VALPARAISO     CLOUDY    31  31 100 CALM      29.68S FOG
$$

LMZ740>746-250800-
SOUTHERN LAKE MICHIGAN

STATION/POSITION TIME  SKY/WX   TEMP WIND        PRES    VSBY
                                AIR  DIR/SP/G
                 (UTC)          (F)  (DEG/KT/KT) (MB)    (MI)
HARRISON CRIB    0700            32   30/  3/  3   N/A
BURNHAM HARBOR   0700            32   10/  3/  5   N/A
CALUMET HARBOR   0600            33   20/  4/  4   N/A
BURNS HARBOR     NOT AVBL
MICHIGAN CITY    0700            35     CALM       N/A
$$

ABBREVIATIONS USED IN REMARKS
   TC - TEMPERATURE IN CELSIUS
  WCI - WIND CHILL INDEX
   HX - HEAT INDEX
  VSB - VISIBILITY
$$


USA.gov is the U.S. government's official web portal to all federal, state and local government web resources and services.